Weather History for FBFT - September, 2013

Change the Weather History Date:

Friday, September 13, 2013

  Actual Average Record
Temperature  
Mean Temperature 78 °F -  
Max Temperature 96 °F 85 °F 96 °F (2013)
Min Temperature 59 °F 57 °F 42 °F (1999)
Cooling Degree Days 12    
Growing Degree Days 28 (Base 50)    
Moisture  
Dew Point 51 °F    
Average Humidity 44    
Maximum Humidity 94    
Minimum Humidity 9    
Precipitation  
Precipitation 0.00 in - - ()
Sea Level Pressure  
Sea Level Pressure 29.98 in    
Wind  
Wind Speed 5 mph ()    
Max Wind Speed 14 mph    
Max Gust Speed -    
Visibility 6.0 miles    
Events      
Averages and records for this station are not official NWS values.
T = Trace of Precipitation, MM = Missing Value Source: Averaged Metar Reports

Daily Weather History Graph

Daily Weather History Graph

Search for Another Location

Airport or City:

Trip Planner

Search our weather history database for the weather conditions in past years. The results will help you decide how hot, cold, wet, or windy it might be!

Date:

Astronomy

Sep. 13, 2013 Rise Set
Actual Time 6:08 AM CAT 6:03 PM CAT
Civil Twilight 5:46 AM CAT 6:26 PM CAT
Nautical Twilight 5:20 AM CAT 6:51 PM CAT
Astronomical Twilight 4:54 AM CAT 7:17 PM CAT
Moon 12:10 PM CAT (9/13) 12:44 AM CAT (9/13)
Length of Visible Light 12h 40m
Length of Day
11h 55m
First Quarter, 58% of the Moon is Illuminated
Sep 13
First Quarter
Sep 19
Full
Sep 27
Last Quarter
Oct 5
New
Oct 12
First Quarter

Hourly Weather History & Observations

Time (CAT) Temp. Heat Index Dew Point Humidity Pressure Visibility Wind Dir Wind Speed Gust Speed Precip Events Conditions
12:00 AM 69.8 °F - 57.2 °F 64% 30.04 in - East 9.2 mph - N/A   Clear
1:00 AM 64.4 °F - 39.2 °F 40% 30.01 in - East 8.1 mph - N/A   Clear
2:00 AM 68 °F - 57 °F 60%  in 6 mi East 6.9 mph - -  
3:00 AM 68.0 °F - 57.2 °F 68% 30.01 in - ENE 5.8 mph - N/A   Clear
4:00 AM 66.2 °F - 57.2 °F 73% 29.98 in - East 4.6 mph - N/A   Clear
5:00 AM 62.6 °F - 55.4 °F 77% 29.98 in - SE 5.8 mph - N/A   Clear
6:00 AM 59.0 °F - 57.2 °F 94% 30.01 in - East 4.6 mph - N/A   Clear
7:00 AM 59.0 °F - 53.6 °F 82% 30.01 in - Variable 2.3 mph - N/A   Clear
8:00 AM 64 °F - 56 °F 68%  in 6 mi ESE 4.6 mph - -   Partly Cloudy
8:00 AM 64.4 °F - 55.4 °F 73% 30.04 in - ESE 4.6 mph - N/A   Clear
9:00 AM 71.6 °F - 59.0 °F 64% 30.04 in - Variable 1.2 mph - N/A   Clear
10:00 AM 82.4 °F 81.7 °F 55.4 °F 39% 30.04 in - Variable 1.2 mph - N/A   Clear
11:00 AM 89.6 °F - 50.0 °F 26% 30.01 in - NW 13.8 mph - N/A   Clear
12:00 PM 93.2 °F - 46.4 °F 20% 29.98 in - NW 12.7 mph - N/A   Clear
1:00 PM 93.2 °F - 46.4 °F 20% 29.95 in - NNE 9.2 mph - N/A   Clear
2:00 PM 96 °F - 44 °F 9%  in 6 mi NNE 1.2 mph - -  
2:00 PM 95.0 °F - 44.6 °F 18% 29.92 in - NNE 1.2 mph - N/A   Clear
3:00 PM 95.0 °F - 44.6 °F 18% 29.89 in - ENE 3.5 mph - N/A   Clear
4:00 PM 95.0 °F - 42.8 °F 16% 29.89 in - North 6.9 mph - N/A   Clear
5:00 PM 95.0 °F - 46.4 °F 19% 29.92 in - WNW 3.5 mph - N/A   Clear
6:00 PM 89.6 °F - 46.4 °F 22% 29.92 in - West 2.3 mph - N/A   Clear
7:00 PM 82.4 °F - 46.4 °F 28% 29.95 in - NE 5.8 mph - N/A   Clear
8:00 PM 82.4 °F - 48.2 °F 30% 29.98 in - East 6.9 mph - N/A   Clear
9:00 PM 80.6 °F - 51.8 °F 37% 29.98 in - SE 4.6 mph - N/A   Clear
10:00 PM 77.0 °F - 55.4 °F 47% 30.01 in - Calm Calm - N/A   Clear
11:00 PM 77.0 °F - 51.8 °F 41% 30.01 in - East 5.8 mph - N/A   Clear